CRYC Weather Reports


Display with metric or nautical units.
time (UTC)temp
F
wind
direction
speed
MPH
gust
MPH
rain 1hr
in
rain 24hr
in
rain mn
in
humidity
%
barometer
mb
20260507034718 64 255 3.0 4.0 0.00 0.00 0.00
20260507033713 64 298 2.0 1.0 0.00 0.00 0.00
20260507032707 64 0 0.0 0.0 0.00 0.00 0.00
20260507031701 64 240 0.0 0.0 0.00 0.00 0.00
20260507030653 64 240 0.0 0.0 0.00 0.00 0.00
20260507025648 64 240 0.0 0.0 0.00 0.00 0.00
20260507024642 63 240 0.0 0.0 0.00 0.00 0.00
20260507023641 63 240 0.0 0.0 0.00 0.00 0.00
20260507022621 63 240 0.0 0.0 0.00 0.00 0.00
20260507021613 64 240 0.0 0.0 0.00 0.00 0.00
20260507020623 64 240 0.0 0.0 0.00 0.00 0.00
20260507015604 65 240 0.0 0.0 0.00 0.00 0.00
20260507014559 65 240 0.0 0.0 0.00 0.00 0.00
20260507013557 65 240 0.0 0.0 0.00 0.00 0.00
20260507012551 65 256 2.0 2.0 0.00 0.00 0.00
20260507011543 65 267 2.0 2.0 0.00 0.00 0.00
20260507010531 65 242 2.0 2.0 0.00 0.00 0.00
20260507004530 65 212 0.0 0.0 0.00 0.00 0.00
20260507003520 66 246 3.0 3.0 0.00 0.00 0.00
20260507001515 66 252 6.0 7.0 0.00 0.00 0.00
20260507000506 66 259 6.0 5.0 0.00 0.00 0.00
20260506235459 66 238 7.0 4.0 0.00 0.00 0.00
20260506233456 67 236 5.0 4.0 0.00 0.00 0.00
20260506232448 68 232 4.0 0.0 0.00 0.00 0.00
20260506231443 68 240 6.0 6.0 0.00 0.00 0.00
20260506230435 68 255 8.0 7.0 0.00 0.00 0.00
20260506225429 68 242 8.0 8.0 0.00 0.00 0.00
20260506224424 69 246 10.0 7.0 0.00 0.00 0.00
20260506223418 69 233 9.0 6.0 0.00 0.00 0.00
20260506222414 69 255 9.0 9.0 0.00 0.00 0.00
20260506221404 70 259 10.0 9.0 0.00 0.00 0.00
20260506220355 70 243 9.0 12.0 0.00 0.00 0.00
20260506215352 71 225 11.0 10.0 0.00 0.00 0.00
20260506214336 70 270 8.0 7.0 0.00 0.00 0.00
20260506213329 72 259 11.0 12.0 0.00 0.00 0.00
20260506212323 71 252 10.0 11.0 0.00 0.00 0.00
20260506211316 71 255 13.0 11.0 0.00 0.00 0.00
20260506210311 73 256 13.0 13.0 0.00 0.00 0.00
20260506205306 74 259 16.0 17.0 0.00 0.00 0.00
20260506204255 75 277 12.0 9.0 0.00 0.00 0.00
20260506203251 73 263 14.0 13.0 0.00 0.00 0.00
20260506201242 73 253 11.0 17.0 0.00 0.00 0.00
20260506200233 72 262 9.0 11.0 0.00 0.00 0.00
20260506193219 71 250 13.0 18.0 0.00 0.00 0.00
20260506192211 71 240 17.0 15.0 0.00 0.00 0.00
20260506191207 71 236 13.0 13.0 0.00 0.00 0.00
20260506190200 72 248 14.0 11.0 0.00 0.00 0.00
20260506185143 71 219 21.0 13.0 0.00 0.00 0.00
20260506184138 73 239 12.0 14.0 0.00 0.00 0.00
20260506183136 74 231 18.0 15.0 0.00 0.00 0.00
20260506182128 73 259 14.0 21.0 0.00 0.00 0.00
20260506181118 72 246 15.0 15.0 0.00 0.00 0.00
20260506180111 71 256 20.0 9.0 0.00 0.00 0.00
20260506175111 71 252 15.0 14.0 0.00 0.00 0.00
20260506174103 71 257 12.0 18.0 0.00 0.00 0.00
20260506173055 71 218 21.0 9.0 0.00 0.00 0.00
20260506172049 69 262 14.0 11.0 0.00 0.00 0.00
20260506171040 68 240 14.0 17.0 0.00 0.00 0.00
20260506170036 67 252 17.0 27.0 0.00 0.00 0.00
20260506165032 71 250 15.0 11.0 0.00 0.00 0.00
20260506164028 68 170 9.0 4.0 0.00 0.00 0.00
20260506163018 64 250 5.0 6.0 0.00 0.00 0.00
20260506162006 65 222 6.0 4.0 0.00 0.00 0.00
20260506161002 66 231 5.0 5.0 0.00 0.00 0.00
20260506155958 66 158 3.0 0.0 0.00 0.00 0.00
20260506154951 66 184 3.0 0.0 0.00 0.00 0.00
20260506152940 64 257 12.0 12.0 0.00 0.00 0.00
20260506151935 65 274 8.0 5.0 0.00 0.00 0.00
20260506150932 66 274 7.0 10.0 0.00 0.00 0.00
20260506145923 65 222 9.0 5.0 0.00 0.00 0.00
20260506144915 66 228 6.0 11.0 0.00 0.00 0.00
20260506143906 66 252 11.0 6.0 0.00 0.00 0.00
20260506142900 66 238 12.0 13.0 0.00 0.00 0.00
20260506140842 68 215 11.0 7.0 0.00 0.00 0.00
20260506135837 68 249 10.0 9.0 0.00 0.00 0.00
20260506134829 67 238 11.0 12.0 0.00 0.00 0.00
20260506133822 68 284 6.0 9.0 0.00 0.00 0.00
20260506132817 68 252 13.0 13.0 0.00 0.00 0.00
20260506131813 70 233 9.0 2.0 0.00 0.00 0.00
20260506130808 69 246 10.0 11.0 0.00 0.00 0.00
20260506125803 68 259 8.0 8.0 0.00 0.00 0.00
20260506124758 68 232 9.0 13.0 0.00 0.00 0.00
20260506123752 67 249 20.0 16.0 0.00 0.00 0.00
20260506122748 68 242 12.0 11.0 0.00 0.00 0.00
20260506121738 67 210 10.0 11.0 0.00 0.00 0.00
20260506120732 68 245 14.0 9.0 0.00 0.00 0.00
20260506114728 70 240 9.0 20.0 0.00 0.00 0.00
20260506113718 68 236 12.0 10.0 0.00 0.00 0.00
20260506112712 68 55 5.0 0.0 0.00 0.00 0.00
20260506111708 66 263 8.0 7.0 0.00 0.00 0.00
20260506110705 66 222 6.0 4.0 0.00 0.00 0.00
20260506105658 67 211 6.0 4.0 0.00 0.00 0.00
20260506104654 66 249 10.0 9.0 0.00 0.00 0.00
20260506103647 69 214 7.0 11.0 0.00 0.00 0.00
20260506102643 65 239 9.0 8.0 0.00 0.00 0.00
20260506101636 64 252 7.0 10.0 0.00 0.00 0.00
20260506100632 64 172 5.0 4.0 0.00 0.00 0.00
20260506095629 64 221 8.0 10.0 0.00 0.00 0.00
20260506094624 64 176 4.0 7.0 0.00 0.00 0.00
20260506093617 64 245 6.0 7.0 0.00 0.00 0.00
20260506092611 63 273 5.0 11.0 0.00 0.00 0.00
20260506091607 64 218 7.0 3.0 0.00 0.00 0.00
20260506090603 64 252 7.0 6.0 0.00 0.00 0.00
20260506084553 64 242 5.0 6.0 0.00 0.00 0.00
20260506083549 64 190 7.0 2.0 0.00 0.00 0.00
20260506082542 64 263 3.0 2.0 0.00 0.00 0.00
20260506081536 64 152 4.0 1.0 0.00 0.00 0.00
20260506080536 64 198 7.0 5.0 0.00 0.00 0.00
20260506073516 65 242 8.0 9.0 0.00 0.00 0.00
20260506072513 65 260 10.0 9.0 0.00 0.00 0.00
20260506071509 65 249 11.0 12.0 0.00 0.00 0.00
20260506070505 65 283 7.0 1.0 0.00 0.00 0.00
20260506062445 66 249 8.0 15.0 0.00 0.00 0.00
20260506061438 67 248 10.0 15.0 0.00 0.00 0.00
20260506050401 68 226 8.0 8.0 0.00 0.00 0.00
20260506044344 67 179 5.0 2.0 0.00 0.00 0.00
20260506043340 67 255 5.0 8.0 0.00 0.00 0.00
20260506042336 67 252 5.0 7.0 0.00 0.00 0.00
20260506041324 67 205 5.0 0.0 0.00 0.00 0.00